Flag for United Kingdom Weather past 2 weeks in St. Peter Port, Guernsey, United Kingdom

Now
41 °F

Scattered showers. Passing clouds.


Feels Like: 32 °F
Forecast: N/A
Wind: 21 mph from Northwest

Location: Guernsey Airport

Current Time: Jan 29, 2015 at 9:10:24 PM

Latest Report: Jan 29, 2015 at 8:20 PM


Visibility: N/A

Pressure: 29.09 "Hg

Humidity: 76%

Dew point: 34 °F

Location of St. Peter PortLocation

Historic Weather in St. Peter Port — Graph

°F

St. Peter Port temperature yesterday

Maximum temperature yesterday: 50 °F (at 7:20 AM)
Minimum temperature yesterday: 41 °F (at 8:50 PM)
Average temperature yesterday: 47 °F

Past Weeks' High & Low Weather Summary

 TemperatureHumidityPressure
High52 °F (Jan 26, 10:20 AM)100% (Jan 15, 9:20 AM)30.54 "Hg (Jan 15, 9:20 AM)
Low36 °F (Jan 19, 5:20 PM)61% (Jan 28, 6:20 PM)29.03 "Hg (Jan 29, 3:20 PM)
Average44 °F83%29.96 "Hg
* Reported Jan 14 7:20 PM — Jan 29 7:50 PM, St. Peter Port, Weather by CustomWeather, © 2014

Note: Actual official high and low records may vary slightly from our data, if they occured in-between our weather recording intervals... More about our weather records

Advertising

St. Peter Port weather history for previous 24 hours

 ConditionsComfort  
Time TempWeatherWind HumidityBarometerVisibility
7:50 PM
Jan 29
43 °FScattered showers. Passing clouds.28 mph66%29.09 "HgN/A
7:20 PM43 °FSprinkles. Passing clouds.29 mph66%29.06 "HgN/A
6:50 PM41 °FPassing clouds.29 mph70%29.06 "HgN/A
6:20 PM41 °FPassing clouds.32 mph66%29.06 "HgN/A
5:50 PM43 °FScattered showers. Passing clouds.33 mph71%29.03 "HgN/A
5:20 PM43 °FScattered showers. Passing clouds.33 mph71%29.03 "HgN/A
4:50 PM43 °FPartly sunny.25 mph81%29.03 "HgN/A
4:20 PM43 °FScattered showers. Partly sunny.28 mph81%29.03 "HgN/A
3:50 PM45 °FScattered showers. Partly sunny.30 mph81%29.03 "HgN/A
3:20 PM43 °FScattered showers. Partly sunny.26 mph87%29.03 "HgN/A
2:50 PM43 °FRain showers. Broken clouds.30 mph93%29.06 "Hg2 mi
2:20 PM45 °FScattered showers. Partly sunny.25 mph87%29.06 "HgN/A
1:50 PM45 °FScattered showers. Partly sunny.22 mph87%29.09 "HgN/A
1:20 PM43 °FScattered showers. Partly sunny.21 mph93%29.12 "HgN/A
12:50 PM45 °FSprinkles. Partly sunny.21 mph87%29.15 "HgN/A
12:20 PM43 °FScattered showers. Passing clouds.23 mph93%29.18 "HgN/A
11:50 AM43 °FSprinkles. Partly sunny.25 mph93%29.21 "HgN/A
11:20 AM41 °FSprinkles. Scattered clouds.18 mph100%29.24 "HgN/A
10:50 AM43 °FSprinkles. Partly sunny.24 mph100%29.27 "HgN/A
10:20 AM43 °FSprinkles. Scattered clouds.17 mph93%29.27 "HgN/A
9:50 AM43 °FLight rain. Partly sunny.14 mph93%29.30 "Hg5 mi
9:20 AM43 °FLight rain. Broken clouds.16 mph93%29.33 "HgN/A
8:50 AM43 °FLight rain. Partly sunny.17 mph93%29.33 "HgN/A
8:20 AM43 °FLight rain. Broken clouds.21 mph93%29.36 "HgN/A
7:50 AM43 °FRain. Broken clouds.28 mph93%29.39 "HgN/A
7:20 AM41 °FLight rain. Partly cloudy.21 mph100%29.42 "HgN/A
6:50 AM43 °FLight rain. Partly cloudy.20 mph93%29.42 "Hg6 mi
6:20 AM43 °FSprinkles. Partly cloudy.18 mph93%29.45 "HgN/A
5:50 AM43 °FRain showers. Partly cloudy.22 mph87%29.47 "Hg5 mi
5:20 AM45 °FPassing clouds.23 mph76%29.47 "HgN/A
4:50 AM43 °FPassing clouds.22 mph87%29.50 "HgN/A
4:20 AM43 °FScattered showers. Passing clouds.21 mph87%29.53 "HgN/A
3:50 AM45 °FScattered showers. Passing clouds.21 mph76%29.53 "HgN/A
Weather by CustomWeather, © 2014

See weather overviewHow to use our weather pages